Weather History for EGNV - July, 2013

Change the Weather History Date:

Saturday, July 27, 2013

  Actual Average Record
Temperature  
Mean Temperature 65 °F -  
Max Temperature 77 °F 67 °F 82 °F (2006)
Min Temperature 53 °F 51 °F 42 °F (1999)
Growing Degree Days 15 (Base 50)    
Moisture  
Dew Point 56 °F    
Average Humidity 63    
Maximum Humidity 88    
Minimum Humidity 47    
Precipitation  
Precipitation 0.00 in - - ()
Sea Level Pressure  
Sea Level Pressure 29.76 in    
Wind  
Wind Speed 6 mph ()    
Max Wind Speed 14 mph    
Max Gust Speed -    
Visibility 6.2 miles    
Events      
Averages and records for this station are not official NWS values.
T = Trace of Precipitation, MM = Missing Value Source: Averaged Metar Reports

Daily Weather History Graph

Daily Weather History Graph

Search for Another Location

Airport or City:

Trip Planner

Search our weather history database for the weather conditions in past years. The results will help you decide how hot, cold, wet, or windy it might be!

Date:

Astronomy

Jul. 27, 2013 Rise Set
Actual Time 5:08 AM BST 9:14 PM BST
Civil Twilight 4:21 AM BST 10:01 PM BST
Nautical Twilight 3:11 AM BST 11:10 PM BST
Astronomical Twilight 1:44 AM BST 12:39 AM BST
Moon 10:46 PM BST (7/27) 11:37 AM BST (7/27)
Length of Visible Light 17h 40m
Length of Day
16h 06m
Waning Gibbous, 73% of the Moon is Illuminated
Jul 27
Waning Gibbous
Jul 29
Last Quarter
Aug 6
New
Aug 14
First Quarter
Aug 21
Full

Hourly Weather History & Observations

Time (BST) Temp. Dew Point Humidity Pressure Visibility Wind Dir Wind Speed Gust Speed Precip Events Conditions
5:20 AM 53.6 °F 50.0 °F 88% 29.86 in 6.2 mi Calm Calm - N/A   Partly Cloudy
6:20 AM 55.4 °F 50.0 °F 82% 29.83 in - Calm Calm - N/A   Clear
6:50 AM 55.4 °F 51.8 °F 88% 29.83 in - Calm Calm - N/A   Clear
7:20 AM 57.2 °F 51.8 °F 82% 29.83 in - Calm Calm - N/A   Clear
7:50 AM 59.0 °F 53.6 °F 82% 29.83 in - Calm Calm - N/A   Clear
8:20 AM 62.6 °F 55.4 °F 77% 29.83 in - North 3.5 mph - N/A   Clear
8:50 AM 64.4 °F 55.4 °F 73% 29.83 in - NE 4.6 mph - N/A   Clear
9:20 AM 68.0 °F 55.4 °F 64% 29.83 in - Variable 6.9 mph - N/A   Clear
9:50 AM 69.8 °F 55.4 °F 60% 29.83 in 6.2 mi ENE 9.2 mph - N/A   Partly Cloudy
10:20 AM 69.8 °F 55.4 °F 60% 29.80 in 6.2 mi NE 9.2 mph - N/A   Partly Cloudy
10:50 AM 71.6 °F 55.4 °F 57% 29.80 in 6.2 mi NE 10.4 mph - N/A   Partly Cloudy
11:20 AM 73.4 °F 55.4 °F 53% 29.80 in 6.2 mi NE 9.2 mph - N/A   Partly Cloudy
11:50 AM 73.4 °F 55.4 °F 53% 29.77 in 6.2 mi NE 10.4 mph - N/A   Partly Cloudy
12:20 PM 73.4 °F 57.2 °F 57% 29.77 in 6.2 mi NE 11.5 mph - N/A   Partly Cloudy
12:50 PM 73.4 °F 59.0 °F 61% 29.77 in 6.2 mi NNE 13.8 mph - N/A   Partly Cloudy
1:20 PM 73.4 °F 59.0 °F 61% 29.77 in 6.2 mi NE 13.8 mph - N/A   Partly Cloudy
1:50 PM 71.6 °F 59.0 °F 64% 29.77 in 6.2 mi NE 13.8 mph - N/A   Scattered Clouds
2:20 PM 73.4 °F 59.0 °F 61% 29.74 in 6.2 mi NE 13.8 mph - N/A   Scattered Clouds
2:50 PM 77.0 °F 57.2 °F 50% 29.74 in 6.2 mi East 11.5 mph - N/A   Scattered Clouds
3:20 PM 75.2 °F 57.2 °F 53% 29.74 in 6.2 mi East 13.8 mph - N/A   Scattered Clouds
3:50 PM 73.4 °F 55.4 °F 53% 29.74 in 6.2 mi SE 10.4 mph - N/A   Scattered Clouds
4:20 PM 73.4 °F 53.6 °F 50% 29.71 in 6.2 mi ESE 9.2 mph - N/A   Scattered Clouds
4:50 PM 75.2 °F 53.6 °F 47% 29.71 in 6.2 mi ESE 6.9 mph - N/A   Partly Cloudy
5:20 PM 75.2 °F 53.6 °F 47% 29.71 in 6.2 mi SE 12.7 mph - N/A   Partly Cloudy
5:50 PM 75.2 °F 53.6 °F 47% 29.68 in 6.2 mi SE 10.4 mph - N/A   Partly Cloudy
6:20 PM 73.4 °F 53.6 °F 50% 29.68 in 6.2 mi ESE 13.8 mph - N/A   Partly Cloudy
6:50 PM 73.4 °F 53.6 °F 50% 29.68 in 6.2 mi East 12.7 mph - N/A   Partly Cloudy
7:20 PM 71.6 °F 53.6 °F 53% 29.68 in 6.2 mi East 13.8 mph - N/A   Partly Cloudy
7:50 PM 69.8 °F 57.2 °F 64% 29.68 in 6.2 mi East 12.7 mph - N/A   Partly Cloudy
8:20 PM 68.0 °F 59.0 °F 73% 29.68 in - East 11.5 mph - N/A   Clear
8:50 PM 68.0 °F 60.8 °F 78% 29.65 in - East 11.5 mph - N/A   Clear
9:20 PM 66.2 °F 60.8 °F 83% 29.65 in 6.2 mi ENE 8.1 mph - N/A   Partly Cloudy